• In Uzbekistan
  • List of Countries
  • For 7 days
  • Water Temperature
  • Satellite Maps
  • Weather Map
  • Weather Widgets
  • user-avatar
    Login

    Hourly Weather Cotia

    Today, 17 October, Tuesday

    Time Temperature Precipitation Wind Pressure Humidity
    00:00 +17°C° 0 mm 4 mps 694 mmHg 88%
    01:00 +17°C° 0 mm 3 mps 694 mmHg 87%
    02:00 +17°C° 0 mm 3 mps 694 mmHg 87%
    03:00 +17°C° 0 mm 3 mps 694 mmHg 87%
    04:00 +17°C° 0 mm 3 mps 694 mmHg 88%
    05:00 +17°C° 0 mm 3 mps 694 mmHg 88%
    06:00 +17°C° 0 mm 2 mps 694 mmHg 88%
    07:00 +19°C° 0 mm 2 mps 695 mmHg 81%
    08:00 +20°C° 0 mm 2 mps 696 mmHg 75%
    09:00 +22°C° 0 mm 3 mps 696 mmHg 67%
    10:00 +24°C° 0 mm 3 mps 696 mmHg 62%
    11:00 +26°C° 0 mm 2 mps 696 mmHg 56%
    12:00 +28°C° 0 mm 2 mps 696 mmHg 51%
    13:00 +28°C° 0 mm 2 mps 696 mmHg 50%
    14:00 +28°C° 0 mm 2 mps 695 mmHg 49%
    15:00 +29°C° 0 mm 2 mps 695 mmHg 48%
    16:00 +27°C° 0 mm 2 mps 694 mmHg 55%
    17:00 +26°C° 0 mm 2 mps 694 mmHg 62%
    18:00 +24°C° 0 mm 2 mps 693 mmHg 70%
    19:00 +23°C° 0 mm 2 mps 694 mmHg 75%
    20:00 +21°C° 0 mm 2 mps 694 mmHg 80%
    21:00 +20°C° 0 mm 2 mps 694 mmHg 85%
    22:00 +21°C° 0 mm 1 mps 694 mmHg 85%
    23:00 +20°C° 0 mm 1 mps 694 mmHg 85%

    Tomorrow, 18 October, Wednesday

    Time Temperature Precipitation Wind Pressure Humidity
    00:00 +20°C° 0 mm 1 mps 694 mmHg 85%
    01:00 +20°C° 0 mm 1 mps 693 mmHg 84%
    02:00 +20°C° 0 mm 1 mps 693 mmHg 83%
    03:00 +20°C° 0 mm 1 mps 692 mmHg 82%
    04:00 +19°C° 0 mm 1 mps 692 mmHg 82%
    05:00 +19°C° 0 mm 1 mps 693 mmHg 81%
    06:00 +19°C° 0 mm 1 mps 693 mmHg 81%
    07:00 +21°C° 0 mm 2 mps 693 mmHg 72%
    08:00 +24°C° 0 mm 2 mps 694 mmHg 62%
    09:00 +27°C° 0 mm 2 mps 695 mmHg 52%
    10:00 +28°C° 0 mm 2 mps 695 mmHg 47%
    11:00 +30°C° 0 mm 2 mps 694 mmHg 42%
    12:00 +31°C° 0 mm 2 mps 694 mmHg 37%
    13:00 +31°C° 0 mm 2 mps 694 mmHg 37%
    14:00 +31°C° 0 mm 2 mps 693 mmHg 36%
    15:00 +31°C° 0 mm 2 mps 692 mmHg 36%
    16:00 +30°C° 0 mm 2 mps 692 mmHg 42%
    17:00 +28°C° 0 mm 2 mps 692 mmHg 47%
    18:00 +27°C° 0 mm 1 mps 691 mmHg 52%
    19:00 +26°C° 0 mm 1 mps 691 mmHg 55%
    20:00 +25°C° 0 mm 1 mps 692 mmHg 58%
    21:00 +24°C° 0 mm 1 mps 692 mmHg 61%
    22:00 +24°C° 0 mm 2 mps 692 mmHg 60%
    23:00 +23°C° 0 mm 2 mps 691 mmHg 59%

    Day after tomorrow, 19 October, Thursday

    Time Temperature Precipitation Wind Pressure Humidity
    00:00 +23°C° 0 mm 2 mps 691 mmHg 57%
    01:00 +22°C° 0 mm 3 mps 691 mmHg 56%
    02:00 +22°C° 0 mm 3 mps 690 mmHg 54%
    03:00 +21°C° 0 mm 3 mps 689 mmHg 53%
    04:00 +21°C° 0 mm 3 mps 689 mmHg 53%
    05:00 +21°C° 0 mm 3 mps 690 mmHg 53%
    06:00 +20°C° 0 mm 3 mps 690 mmHg 53%
    07:00 +23°C° 0 mm 4 mps 691 mmHg 48%
    08:00 +26°C° 0 mm 4 mps 691 mmHg 43%
    09:00 +28°C° 0 mm 4 mps 692 mmHg 38%
    10:00 +30°C° 0 mm 4 mps 692 mmHg 35%
    11:00 +32°C° 0 mm 4 mps 692 mmHg 32%
    12:00 +34°C° 0 mm 4 mps 692 mmHg 29%
    13:00 +34°C° 0 mm 3 mps 692 mmHg 28%
    14:00 +35°C° 0 mm 3 mps 691 mmHg 28%
    15:00 +35°C° 0 mm 3 mps 690 mmHg 27%
    16:00 +32°C° 0 mm 2 mps 690 mmHg 32%
    17:00 +30°C° 0 mm 2 mps 689 mmHg 36%
    18:00 +29°C° 0 mm 1 mps 689 mmHg 41%
    19:00 +28°C° 0 mm 1 mps 689 mmHg 42%
    20:00 +27°C° 0 mm 1 mps 690 mmHg 43%
    21:00 +26°C° 0 mm 1 mps 690 mmHg 45%
    22:00 +25°C° 0 mm 2 mps 690 mmHg 51%
    23:00 +24°C° 0 mm 2 mps 690 mmHg 58%

    20 October, Friday

    Time Temperature Precipitation Wind Pressure Humidity
    00:00 +24°C° 0 mm 2 mps 690 mmHg 65%
    01:00 +23°C° 0 mm 2 mps 690 mmHg 66%
    02:00 +23°C° 0 mm 1 mps 689 mmHg 67%
    03:00 +23°C° 0 mm 1 mps 689 mmHg 68%
    04:00 +22°C° 0 mm 1 mps 689 mmHg 71%
    05:00 +21°C° 0 mm 2 mps 690 mmHg 73%
    06:00 +21°C° 0 mm 2 mps 690 mmHg 76%
    07:00 +23°C° 0 mm 2 mps 691 mmHg 72%
    08:00 +24°C° 0 mm 3 mps 692 mmHg 68%
    09:00 +25°C° 0 mm 3 mps 692 mmHg 64%
    10:00 +26°C° 0 mm 3 mps 692 mmHg 60%
    11:00 +27°C° 0 mm 2 mps 692 mmHg 56%
    12:00 +28°C° 0 mm 2 mps 693 mmHg 52%
    13:00 +27°C° 0.1 mm 2 mps 692 mmHg 56%
    14:00 +26°C° 0.1 mm 3 mps 691 mmHg 60%
    15:00 +26°C° 0.1 mm 3 mps 690 mmHg 64%
    16:00 +25°C° 0.1 mm 3 mps 690 mmHg 69%
    17:00 +24°C° 0.1 mm 3 mps 690 mmHg 73%
    18:00 +23°C° 0.1 mm 2 mps 690 mmHg 78%
    19:00 +21°C° 0 mm 2 mps 690 mmHg 79%
    20:00 +21°C° 0 mm 2 mps 691 mmHg 81%
    21:00 +20°C° 0 mm 2 mps 691 mmHg 83%
    22:00 +20°C° 0 mm 2 mps 691 mmHg 83%
    23:00 +20°C° 0 mm 2 mps 690 mmHg 83%

    21 October, Saturday

    Time Temperature Precipitation Wind Pressure Humidity
    00:00 +20°C° 0 mm 2 mps 690 mmHg 83%
    01:00 +20°C° 0 mm 2 mps 689 mmHg 81%
    02:00 +20°C° 0 mm 2 mps 689 mmHg 80%
    03:00 +20°C° 0 mm 2 mps 689 mmHg 79%
    04:00 +20°C° 0 mm 2 mps 689 mmHg 77%
    05:00 +20°C° 0 mm 2 mps 689 mmHg 74%
    06:00 +20°C° 0 mm 2 mps 689 mmHg 72%
    07:00 +24°C° 0 mm 3 mps 690 mmHg 61%
    08:00 +26°C° 0 mm 3 mps 690 mmHg 51%
    09:00 +29°C° 0 mm 4 mps 691 mmHg 40%
    10:00 +30°C° 0 mm 5 mps 691 mmHg 37%
    11:00 +32°C° 0 mm 5 mps 691 mmHg 34%
    12:00 +33°C° 0 mm 5 mps 691 mmHg 31%
    13:00 +33°C° 0 mm 5 mps 690 mmHg 34%
    14:00 +32°C° 0 mm 4 mps 689 mmHg 37%
    15:00 +32°C° 0 mm 4 mps 689 mmHg 40%
    16:00 +29°C° 0.1 mm 3 mps 689 mmHg 45%
    17:00 +28°C° 0.1 mm 3 mps 689 mmHg 49%
    18:00 +27°C° 0.1 mm 3 mps 690 mmHg 54%
    19:00 +25°C° 1.2 mm 3 mps 690 mmHg 62%
    20:00 +24°C° 1.2 mm 3 mps 690 mmHg 71%
    21:00 +21°C° 1.2 mm 3 mps 690 mmHg 79%
    22:00 +21°C° 0.6 mm 3 mps 690 mmHg 78%
    23:00 +21°C° 0.6 mm 3 mps 689 mmHg 76%

    22 October, Sunday

    Time Temperature Precipitation Wind Pressure Humidity
    00:00 +21°C° 0.6 mm 3 mps 689 mmHg 75%
    01:00 +21°C° 0.1 mm 2 mps 688 mmHg 76%
    02:00 +21°C° 0.1 mm 2 mps 688 mmHg 77%
    03:00 +21°C° 0.1 mm 2 mps 688 mmHg 78%
    04:00 +21°C° 0.2 mm 2 mps 688 mmHg 77%
    05:00 +21°C° 0.2 mm 2 mps 689 mmHg 76%
    06:00 +21°C° 0.2 mm 2 mps 689 mmHg 76%
    07:00 +23°C° 0 mm 2 mps 689 mmHg 71%
    08:00 +25°C° 0 mm 2 mps 690 mmHg 66%
    09:00 +26°C° 0 mm 2 mps 690 mmHg 61%
    10:00 +27°C° 0.1 mm 3 mps 691 mmHg 58%
    11:00 +27°C° 0.1 mm 4 mps 691 mmHg 55%
    12:00 +28°C° 0.1 mm 4 mps 691 mmHg 52%
    13:00 +28°C° 0.4 mm 4 mps 690 mmHg 54%
    14:00 +28°C° 0.4 mm 4 mps 690 mmHg 56%
    15:00 +27°C° 0.4 mm 3 mps 689 mmHg 57%
    16:00 +26°C° 1.5 mm 3 mps 689 mmHg 65%
    17:00 +25°C° 1.5 mm 2 mps 689 mmHg 72%
    18:00 +23°C° 1.5 mm 2 mps 689 mmHg 79%
    19:00 +23°C° 0.4 mm 2 mps 689 mmHg 80%
    20:00 +23°C° 0.4 mm 2 mps 689 mmHg 81%
    21:00 +22°C° 0.4 mm 1 mps 689 mmHg 82%
    22:00 +22°C° 0.1 mm 1 mps 689 mmHg 83%
    23:00 +22°C° 0.1 mm 1 mps 689 mmHg 84%
    Show more